GFSSE_con_3kmhel_102.txt.gz
Helicity
-24 -23 -7 38 79 112 155 213 232 202 150 137 139 168 191 215 217 206 193 179 174 155 174 206 178 145 115 102 117 132 137 126 112 102 96 95 101 111 111 113 107 97 100
22 -40 -15 38 94 122 141 160 164 190 122 92 115 132 175 157 171 181 178 164 147 143 166 186 160 116 114 127 151 152 173 158 125 113 108 106 91 92 102 107 106 95 102
11 -32 3 39 77 107 104 117 164 162 182 113 123 111 135 133 137 145 148 141 136 132 132 128 117 105 103 143 184 189 200 195 183 177 162 115 76 80 107 134 130 117 110
8 -20 46 67 83 81 101 115 131 137 168 156 155 103 116 124 119 120 127 148 146 118 95 86 88 100 118 153 163 175 182 196 181 172 139 107 98 110 114 118 118 107 92
40 55 95 103 98 93 99 117 127 142 135 152 139 130 101 117 118 110 127 129 119 83 50 67 86 106 137 156 153 156 162 198 210 198 187 161 126 114 120 112 111 92 79
68 107 111 114 95 107 110 127 133 131 162 124 171 266 113 113 97 100 113 103 87 64 58 69 91 140 149 184 181 164 152 173 173 153 141 134 129 119 101 92 85 77 63
174 161 155 135 121 115 103 119 139 159 140 159 133 178 168 152 131 64 88 92 85 71 55 73 110 151 185 198 183 175 153 135 142 160 167 140 109 108 89 69 64 71 66
216 230 205 154 133 116 103 103 102 97 164 132 207 249 384 191 190 24 79 85 81 77 50 56 77 153 215 183 151 149 109 108 137 167 158 121 99 93 77 71 65 70 67
195 236 191 178 159 134 110 79 119 158 213 333 346 297 121 250 122 22 27 70 111 89 65 58 76 164 177 155 141 103 118 109 103 99 94 87 70 69 64 66 62 57 46
200 182 180 136 151 126 101 122 146 197 240 280 259 303 327 255 94 96 10 97 109 97 59 51 87 121 156 133 109 154 143 126 97 97 77 33 53 56 61 60 52 52 44
183 164 129 121 117 120 127 148 160 224 248 297 195 233 204 200 223 -5 28 96 118 88 81 65 79 104 142 138 140 168 161 85 84 77 42 42 49 62 57 58 64 51 41
157 144 147 116 127 146 134 158 185 202 198 277 292 274 231 175 174 162 138 61 117 107 67 57 75 107 188 181 160 144 104 67 44 42 31 39 51 62 63 54 50 45 49
131 212 201 177 173 160 159 143 163 182 161 240 253 182 139 183 169 139 178 90 156 121 68 70 67 101 162 189 138 114 103 59 27 42 29 38 57 68 57 49 44 41 38
200 244 283 267 229 172 176 162 148 197 156 213 217 200 264 299 294 217 269 136 167 121 92 99 77 99 215 140 136 137 77 59 44 44 33 51 55 47 46 48 43 32 30
296 335 342 341 279 205 177 154 171 130 112 137 215 232 261 261 245 297 241 129 150 127 83 118 68 152 196 118 115 113 84 61 54 64 51 48 39 44 44 45 34 28 26
332 366 387 371 304 232 172 131 107 96 76 146 201 239 296 271 163 131 198 160 149 123 97 86 146 130 171 152 107 86 90 56 49 70 66 33 35 34 37 34 30 28 25
379 384 342 324 276 198 102 85 50 44 52 49 124 149 164 127 274 238 227 170 132 120 104 151 144 139 185 142 76 89 97 57 42 73 74 33 22 26 23 33 30 20 17
452 363 303 288 271 129 30 36 17 23 71 31 -34 68 -10 153 187 188 207 121 141 153 147 136 140 124 142 154 94 86 90 53 39 48 51 40 21 19 18 24 16 15 10
388 312 266 234 145 81 28 15 15 -1 3 -47 -22 52 23 191 241 189 193 169 171 182 143 117 161 128 107 163 141 96 79 46 36 33 33 28 26 29 25 16 29 25 15
328 285 256 214 147 82 58 31 30 31 -23 18 34 121 75 229 194 230 173 212 164 207 155 120 152 152 137 180 157 70 40 43 53 35 29 24 16 34 40 38 36 38 48
303 271 257 231 169 119 60 55 30 51 27 58 133 156 215 245 173 206 159 205 196 165 110 85 150 136 148 162 210 174 52 16 59 43 49 58 42 33 42 52 63 74 65
280 220 268 208 187 109 76 45 61 84 65 3 282 188 308 344 201 196 146 166 184 186 108 86 105 193 166 122 178 192 181 118 61 20 109 81 79 86 72 66 77 98 111
273 182 265 206 176 115 86 85 57 90 70 -14 125 439 405 270 225 197 186 194 181 175 136 98 127 146 153 131 106 184 247 152 65 69 69 77 114 127 129 105 116 125 146
236 163 250 209 180 119 89 82 45 70 112 -53 -47 350 379 344 352 243 274 199 204 223 166 157 156 168 204 131 145 172 115 92 85 104 111 90 106 110 114 120 121 144 172
225 137 189 191 174 129 58 67 66 85 70 31 78 190 249 353 315 291 278 273 279 259 220 212 207 230 184 133 96 171 146 127 111 146 154 86 76 52 65 85 171 168 168
192 157 178 150 168 128 52 32 56 89 115 74 142 188 309 366 447 352 401 367 369 315 240 269 304 166 161 116 181 170 146 119 104 118 100 84 86 73 78 104 105 123 195

GFSSE_con_3kmhel_105.txt.gz
Helicity
-34 -43 -72 -33 53 129 152 187 214 261 236 188 214 215 210 192 193 185 154 157 154 160 152 177 192 151 109 99 108 109 110 94 84 93 90 91 94 103 111 120 119 95 93
35 -41 -70 -15 75 144 170 177 193 248 271 215 172 167 184 223 198 182 172 179 176 181 163 178 191 141 103 109 122 124 129 103 116 113 103 96 98 94 96 93 99 94 98
64 -6 -64 -31 77 145 181 165 127 124 140 144 135 175 148 199 202 181 184 192 193 177 146 159 166 138 114 140 170 168 167 166 163 134 120 104 75 83 80 67 69 73 100
75 20 -39 -12 67 119 162 189 148 123 109 153 210 373 200 185 177 169 167 159 149 126 148 146 143 123 154 186 184 192 199 192 160 167 144 103 64 87 102 116 137 133 98
94 66 40 32 65 99 145 187 186 154 130 150 195 220 214 174 155 141 130 127 119 96 100 124 124 123 163 181 183 201 201 201 194 183 170 165 130 131 155 124 116 95 94
127 103 68 100 98 106 111 146 174 190 186 206 156 174 218 150 127 96 97 120 105 75 83 92 108 137 168 174 183 195 185 179 180 179 168 145 127 126 130 117 90 91 77
131 140 119 129 133 120 123 131 126 169 215 262 199 263 106 159 205 61 60 64 65 53 78 125 132 169 174 166 166 174 165 155 169 172 162 156 115 125 117 97 92 85 78
197 175 150 153 145 134 137 115 124 136 178 244 333 529 319 121 310 49 29 35 78 81 104 126 143 178 178 175 140 149 150 157 171 170 152 168 115 126 96 91 75 69 68
175 196 190 182 169 147 130 109 104 140 147 248 310 320 370 350 223 148 35 79 69 104 129 142 154 165 185 157 139 137 108 140 173 165 145 119 130 94 81 64 55 58 61
186 203 208 170 172 155 120 93 91 102 152 300 307 298 252 257 263 61 255 112 41 97 110 142 132 161 165 112 104 109 114 132 123 138 151 92 95 71 65 67 56 57 49
188 202 198 154 146 137 133 108 97 106 177 294 246 245 204 293 229 241 295 204 35 119 115 123 112 152 138 54 90 112 117 95 120 129 104 77 55 53 55 45 51 40 30
203 189 179 140 152 135 135 154 161 159 208 231 307 346 292 220 279 257 233 170 16 113 111 108 123 156 126 97 144 149 114 101 117 99 74 36 48 53 49 45 33 26 24
200 208 153 132 180 184 156 176 174 212 266 257 326 309 268 206 158 234 151 140 68 107 137 127 163 157 94 110 140 124 112 105 73 78 28 35 46 41 35 30 23 22 27
239 200 175 175 234 223 212 189 166 198 292 320 302 263 285 268 195 185 134 130 177 136 163 164 175 125 100 139 116 95 119 69 65 67 20 25 33 32 25 21 21 24 23
278 268 225 232 268 289 278 232 186 185 245 346 274 239 277 231 191 209 157 187 199 180 152 154 165 118 83 93 96 129 86 78 67 67 29 37 25 19 21 17 21 21 26
271 294 310 305 307 345 316 267 188 166 166 187 177 180 190 229 273 215 196 164 230 170 145 148 180 137 95 115 144 114 96 88 77 73 43 30 22 16 15 16 21 28 31
305 389 400 338 344 317 281 235 158 133 122 100 89 169 193 229 254 275 259 246 207 239 166 205 217 177 141 106 126 105 84 70 65 67 57 37 19 28 24 17 22 25 22
393 442 407 340 316 249 256 153 100 74 92 101 121 184 204 281 271 333 330 357 265 257 173 175 191 194 135 140 135 105 109 61 52 60 44 41 38 38 24 22 18 13 14
416 391 388 329 276 227 191 104 77 62 71 87 131 131 153 177 278 373 403 267 210 221 177 171 220 222 176 182 127 111 88 50 41 42 30 35 36 48 27 9 13 12 12
409 341 368 294 242 228 203 120 84 88 50 38 93 149 80 132 163 284 202 187 226 194 190 213 227 249 235 188 116 100 65 48 46 33 26 28 20 34 39 18 15 22 18
403 351 338 289 226 269 243 163 108 82 61 52 62 68 57 130 194 252 193 218 162 156 166 168 267 266 242 206 200 171 121 77 44 19 15 8 18 35 38 38 35 40 37
408 316 317 279 248 221 227 166 128 100 73 65 108 95 178 182 222 222 174 132 175 209 216 202 249 358 281 179 213 229 186 137 41 2 -4 31 48 59 39 44 56 59 65
411 324 278 264 219 205 222 181 116 111 105 116 99 149 305 427 239 201 174 204 191 188 209 183 232 286 255 172 174 193 216 161 102 14 8 64 63 47 59 77 68 75 90
400 279 253 267 185 204 213 177 86 92 135 162 124 255 266 240 219 210 206 239 215 206 208 220 187 200 256 184 229 196 144 113 119 123 17 41 68 49 89 99 87 82 107
319 258 236 272 145 204 176 137 79 74 82 125 130 318 313 230 301 240 242 219 244 243 238 209 163 160 196 214 210 227 166 124 131 112 76 91 103 47 82 99 109 113 127
249 222 237 252 121 169 145 93 70 69 85 91 128 283 404 310 283 340 219 181 191 219 216 204 179 153 175 165 168 186 159 158 171 102 142 70 59 47 74 115 131 126 141

GFSSE_con_3kmhel_108.txt.gz
Helicity
-19 -14 -1 -19 39 95 130 159 168 167 203 231 244 215 205 200 179 155 159 129 116 103 110 126 144 124 96 99 99 91 100 104 105 111 108 99 95 103 113 122 115 88 92
36 31 -9 -27 32 108 156 195 180 163 192 227 239 206 183 191 177 172 189 178 161 145 136 141 154 134 122 113 113 112 107 87 92 92 102 110 102 106 102 103 96 86 96
50 43 9 -17 31 100 159 223 203 156 144 178 207 235 209 169 176 194 216 181 174 152 122 132 148 146 124 125 116 104 118 113 118 99 122 99 98 115 103 89 99 100 97
78 57 49 36 62 107 126 182 205 182 154 144 140 181 190 267 197 184 204 174 157 130 127 139 155 151 139 155 158 164 170 164 157 158 132 113 90 91 95 83 81 107 106
107 98 102 94 83 121 126 136 162 203 191 215 211 179 221 258 224 179 160 149 136 122 114 126 151 145 165 204 211 208 198 182 170 161 165 126 95 84 113 127 122 123 106
121 113 138 132 121 152 148 138 144 180 229 206 191 248 199 205 152 119 100 106 103 99 92 123 153 146 165 189 193 189 185 174 162 163 147 127 136 112 149 158 122 117 107
123 148 126 131 128 157 155 156 149 155 170 234 198 175 144 177 109 90 78 78 65 73 87 131 155 166 179 176 164 155 178 172 160 152 141 127 119 142 143 125 112 97 84
191 167 131 128 122 153 151 142 157 178 180 178 275 299 340 157 260 208 58 76 53 85 103 136 181 189 159 158 156 172 163 160 161 153 153 126 124 134 119 93 117 87 74
166 183 153 151 130 153 152 141 122 154 149 249 294 275 399 273 346 245 109 140 51 70 83 140 181 168 144 140 151 141 150 151 170 152 145 136 117 121 109 92 68 62 58
183 163 157 176 157 151 114 151 125 118 208 299 277 329 274 261 229 319 207 157 40 42 87 151 182 148 136 132 129 131 119 145 166 146 145 105 106 101 93 71 53 46 36
200 187 174 193 162 146 105 136 118 123 214 272 291 293 456 313 219 302 223 174 57 137 130 188 178 135 124 113 111 108 114 112 144 117 120 99 91 81 56 48 41 38 28
219 204 199 187 151 129 98 151 162 170 200 263 315 314 310 323 159 165 214 125 230 180 218 188 172 138 142 131 117 115 102 107 119 103 103 81 53 53 52 40 35 25 19
227 239 218 184 155 143 111 157 192 225 261 287 322 305 272 234 209 130 193 183 193 210 212 174 193 181 150 121 119 114 104 105 116 121 74 41 45 50 46 36 21 15 22
274 252 236 230 206 162 140 193 225 242 240 277 322 343 331 270 225 240 235 169 149 225 182 193 185 157 143 117 136 124 102 68 89 72 65 16 52 48 26 21 16 21 22
257 286 288 280 263 224 215 267 277 290 242 199 304 337 311 288 249 269 226 120 196 210 213 201 189 145 145 127 143 125 91 82 48 64 32 43 47 16 15 20 20 17 15
235 284 323 333 305 278 281 325 324 298 231 236 286 305 286 256 239 219 167 153 226 186 236 219 183 152 136 141 137 105 84 90 64 53 34 38 33 16 5 28 26 18 17
257 317 335 348 329 294 306 341 327 236 176 164 227 254 229 207 192 165 124 164 183 228 277 277 254 182 153 144 124 126 121 81 77 50 45 44 31 12 15 23 29 25 23
318 345 364 354 313 302 316 317 262 187 123 93 92 133 164 204 212 189 168 219 223 257 286 260 262 188 134 142 149 127 111 83 64 54 51 65 47 27 18 37 34 31 23
338 394 380 362 313 317 298 288 214 165 121 79 92 97 149 127 194 249 246 277 266 299 278 262 284 208 187 191 153 142 107 80 60 61 55 52 38 27 23 19 31 32 24
310 333 376 353 323 315 274 258 191 154 143 109 84 153 122 84 170 232 290 253 248 279 276 292 337 265 188 171 164 132 118 100 75 58 40 36 20 19 23 19 31 31 29
254 367 417 393 333 329 263 284 210 199 166 127 95 89 229 149 166 251 367 331 319 264 286 289 385 270 247 219 243 175 143 117 79 60 38 27 1 -7 2 20 38 39 29
197 351 425 378 318 283 217 273 233 228 160 134 81 117 184 106 102 255 357 352 312 344 314 322 356 352 282 198 215 234 187 153 69 35 31 4 -14 4 8 30 34 40 41
263 347 426 339 254 248 229 308 233 219 195 154 120 142 167 162 242 257 313 378 288 274 254 289 378 358 296 219 167 191 234 151 114 76 23 3 -1 2 36 19 19 40 56
276 411 406 287 192 200 224 306 236 216 155 151 159 133 165 261 242 215 210 216 215 223 238 319 369 373 332 279 252 216 170 117 159 125 48 17 2 -5 14 49 38 56 75
359 381 323 245 168 193 190 255 183 141 107 133 157 135 200 337 234 167 200 172 199 219 258 272 318 328 281 310 238 259 218 159 157 147 143 58 46 44 59 70 45 63 73
281 311 295 214 169 187 176 218 141 107 95 142 134 155 231 351 330 274 213 195 216 254 267 253 274 294 275 243 256 232 221 198 169 163 172 192 183 120 121 36 49 77 102

GFSSE_con_3kmhel_111.txt.gz
Helicity
14 32 4 5 10 44 85 122 123 133 153 206 191 180 203 179 160 144 126 124 90 88 94 105 120 119 101 97 90 93 95 92 100 99 103 108 95 100 102 105 78 89 89
28 27 40 33 41 28 81 119 140 150 150 160 173 176 201 186 171 159 137 138 101 100 82 89 110 115 109 103 114 108 112 106 99 114 102 90 80 97 115 111 94 94 87
74 62 62 65 75 64 85 96 120 141 165 155 167 194 218 211 193 172 149 142 109 92 93 91 95 115 118 128 129 130 125 113 114 103 73 83 94 108 112 116 103 105 101
72 95 90 113 111 109 89 89 94 113 148 153 184 160 148 178 200 205 169 164 136 101 91 101 117 123 119 139 127 118 123 131 129 105 95 76 98 90 95 90 89 93 107
95 91 115 131 122 137 96 101 101 111 122 107 155 185 167 154 183 219 191 178 106 89 90 109 130 141 139 155 158 159 167 172 149 85 74 86 79 67 75 90 106 118 126
93 116 132 145 141 141 137 128 133 131 133 152 204 186 172 110 113 117 189 141 86 91 97 130 143 175 164 173 172 178 175 164 105 75 85 106 80 81 103 99 133 125 147
106 131 146 141 158 139 150 157 166 154 126 89 107 133 134 146 167 46 91 96 95 95 112 122 163 171 170 174 182 169 152 129 74 73 73 60 87 80 107 116 132 135 125
133 132 155 134 155 136 143 146 178 168 87 79 128 177 263 143 44 126 95 108 96 91 90 127 152 154 164 178 178 170 150 112 62 65 64 73 90 109 129 138 129 127 106
145 150 155 152 137 135 134 149 161 165 115 122 187 219 201 154 165 240 163 201 157 184 106 127 123 148 144 155 165 168 154 107 68 65 85 79 109 121 120 114 87 84 70
159 137 137 143 145 113 119 141 141 180 153 214 249 261 237 346 284 313 167 127 138 144 112 101 134 159 142 163 165 165 149 97 70 63 64 95 90 89 105 72 58 66 53
188 152 145 132 136 123 120 111 126 213 213 218 245 238 214 261 345 248 191 54 189 158 104 110 158 153 156 147 144 132 92 66 64 62 66 88 105 91 67 57 55 56 39
210 185 153 133 133 147 133 113 98 183 239 250 225 191 231 221 214 242 190 162 151 153 173 139 190 170 119 100 102 91 62 64 55 65 56 53 72 62 58 48 52 39 36
214 212 195 143 134 158 159 146 132 188 269 271 292 253 220 217 213 239 259 166 156 165 141 127 197 202 104 93 74 63 58 45 46 39 48 58 46 52 53 48 45 40 38
217 208 192 174 184 177 179 187 186 224 282 305 315 289 249 220 229 195 229 237 158 178 214 182 245 179 104 84 63 68 47 35 38 32 47 15 21 50 54 47 41 41 33
166 213 209 215 212 235 231 229 251 254 280 301 304 287 239 196 186 181 169 120 129 268 217 235 168 163 98 90 68 54 48 51 39 39 50 -13 37 33 34 39 39 37 34
139 190 240 244 254 237 263 265 276 289 262 251 269 250 241 183 187 147 155 119 255 223 184 205 150 181 99 88 76 62 52 48 30 39 29 10 38 39 25 42 34 26 24
184 170 252 295 307 260 248 268 283 283 251 244 209 209 178 232 220 146 171 219 202 157 177 213 134 171 115 97 78 66 63 48 36 46 32 29 26 26 36 40 29 19 22
98 143 236 335 349 292 283 263 277 269 254 216 194 181 160 167 215 185 165 157 179 177 171 193 181 172 131 109 82 77 64 53 40 50 28 40 26 23 25 45 25 24 24
76 125 198 291 329 310 289 282 272 219 216 171 164 161 138 153 196 184 137 112 170 199 156 205 188 158 145 111 90 78 79 51 48 47 31 39 27 24 24 42 28 32 32
91 114 162 275 310 311 324 285 254 204 181 138 124 125 115 141 205 217 89 137 182 241 222 174 235 167 150 131 137 119 92 76 61 51 45 44 16 23 20 23 22 20 21
62 110 157 243 311 366 381 290 241 193 196 156 118 131 108 151 191 226 307 210 198 254 206 216 257 228 227 162 187 154 128 105 69 65 50 28 14 16 12 10 8 13 20
49 82 152 220 320 327 290 253 230 193 202 173 100 100 91 98 94 112 217 313 342 244 306 293 272 284 277 182 181 152 175 112 73 47 28 19 21 15 -2 -12 -13 13 12
61 100 156 248 330 326 237 245 265 200 217 236 121 78 91 95 139 90 103 260 356 335 313 309 309 253 300 191 157 181 237 143 97 47 26 37 31 1 -13 -7 -13 -8 7
103 103 165 254 317 293 255 225 220 181 210 213 116 105 101 128 157 145 201 222 296 287 293 288 277 246 293 264 201 195 173 122 130 99 77 36 27 0 -5 -21 -10 -9 8
100 152 176 216 258 251 204 228 204 160 184 164 124 124 159 148 188 214 271 337 300 305 297 327 290 261 290 318 274 223 173 130 119 122 105 75 34 -7 -6 3 15 38 57
100 140 160 266 225 184 165 193 150 126 129 134 113 148 173 199 200 301 278 281 244 283 308 315 315 282 300 281 264 219 182 141 107 138 135 123 79 69 52 57 73 89 56

GFSSE_con_3kmhel_114.txt.gz
Helicity
80 75 14 -15 -5 11 22 64 76 90 142 160 150 136 135 150 135 111 86 67 67 74 74 69 69 77 83 86 88 97 109 114 105 102 102 102 99 85 78 64 58 78 85
70 32 24 31 35 54 51 50 47 75 132 155 144 142 149 147 120 113 104 79 84 87 78 70 68 71 86 101 119 121 116 121 124 118 115 116 101 92 99 124 118 91 97
59 41 38 56 65 71 55 45 53 77 103 137 155 156 177 144 129 147 127 97 94 85 70 72 72 80 95 96 123 121 121 119 97 62 28 61 84 104 123 127 93 92 91
50 47 58 95 100 99 74 59 55 68 88 116 146 168 174 147 142 120 116 108 86 86 67 65 74 82 101 122 133 139 121 104 82 27 38 78 85 96 103 98 86 85 95
51 51 97 121 119 128 99 79 69 59 81 100 136 133 138 125 101 180 3 109 105 87 97 77 78 102 149 141 141 137 110 86 43 29 58 65 77 86 84 76 55 63 90
61 69 138 125 128 139 119 102 92 74 90 99 78 139 172 118 116 59 50 108 95 102 76 88 113 142 159 151 137 125 118 69 -17 64 76 104 77 77 91 122 144 129 125
96 99 123 125 122 139 138 129 117 87 95 108 87 127 110 233 68 115 29 -11 81 102 109 96 117 155 145 156 137 125 81 4 25 65 69 88 83 77 100 122 134 143 140
130 129 135 130 107 122 142 148 144 100 79 58 110 113 245 193 68 146 60 61 126 139 149 139 147 150 155 161 150 129 80 35 93 43 73 65 80 81 100 115 132 129 133
133 155 155 139 105 95 114 137 146 91 79 94 144 158 169 165 185 46 97 126 111 147 120 169 208 160 157 162 148 118 84 79 47 56 59 67 91 80 94 120 136 140 135
136 165 173 147 124 96 102 104 129 92 80 131 194 189 170 157 91 92 172 131 107 118 139 177 164 211 153 168 151 114 108 74 46 56 63 94 87 67 100 100 113 86 79
132 178 172 152 131 103 95 104 102 109 98 151 188 197 172 134 122 132 200 181 116 118 177 227 145 177 167 168 124 117 53 44 39 58 77 70 57 64 74 75 65 61 66
110 178 168 157 146 120 115 101 107 115 112 94 125 150 119 147 138 115 216 149 159 155 149 158 131 166 86 91 92 75 44 48 47 48 49 66 64 34 43 58 58 62 55
68 116 137 150 153 155 147 128 129 153 131 114 122 161 156 175 152 99 100 124 169 178 122 96 102 65 66 73 71 56 72 54 56 49 40 47 26 38 31 53 65 56 55
66 93 120 133 156 172 173 145 162 235 230 234 170 123 165 150 122 60 64 125 250 190 92 93 96 73 74 74 82 78 53 53 42 41 57 37 33 23 34 51 47 47 41
82 91 115 135 166 190 195 184 203 244 272 290 262 178 139 107 93 79 69 124 178 192 158 93 98 111 101 101 81 61 55 52 42 39 40 56 40 16 43 44 38 33 32
80 93 106 133 158 202 209 215 222 252 265 306 295 197 140 118 91 77 92 98 181 191 164 189 150 126 136 89 93 73 60 40 31 45 57 58 51 29 32 21 33 31 26
76 90 113 111 160 203 197 195 216 229 257 293 279 189 117 56 112 101 46 43 109 125 167 192 180 112 78 97 95 88 76 58 47 52 41 57 59 38 38 28 34 23 25
80 80 122 123 152 210 204 215 205 218 255 257 255 197 127 92 69 72 78 91 140 169 185 184 146 95 64 89 110 100 90 66 55 63 56 58 70 24 45 26 40 26 25
51 50 118 109 142 183 215 229 192 193 238 243 228 186 109 111 92 61 86 103 142 199 115 141 133 69 78 88 111 114 109 74 52 54 76 65 47 29 29 60 45 41 32
46 37 91 93 118 167 268 275 232 193 209 228 182 177 117 126 110 100 131 169 167 238 115 143 177 71 70 90 130 129 111 83 52 71 62 68 66 49 51 37 33 27 24
54 34 51 98 129 262 344 370 271 230 228 202 168 165 158 132 137 127 178 111 174 190 117 147 90 54 79 105 149 171 146 119 75 82 78 71 62 44 49 41 33 22 34
51 37 47 77 139 231 274 248 215 245 211 196 198 182 152 127 137 156 179 140 256 219 150 155 136 121 121 143 168 163 216 149 102 76 82 80 55 61 41 21 -1 2 19
63 48 51 70 127 163 183 216 191 185 200 206 183 169 141 141 122 149 169 264 391 275 268 171 138 110 204 180 132 143 191 136 103 83 81 70 63 57 38 5 -8 3 13
77 85 82 82 107 124 170 180 187 169 163 176 144 117 105 76 97 127 175 204 419 307 192 235 185 176 178 175 159 130 122 137 117 127 83 58 60 43 17 -1 20 13 23
97 128 95 101 95 141 148 154 146 108 144 160 114 90 77 93 84 104 128 210 256 255 363 268 207 229 203 169 182 227 172 136 79 86 101 77 66 35 33 20 27 28 30
109 120 98 67 118 174 176 170 122 111 147 152 111 90 92 131 130 136 142 259 305 345 305 314 279 225 230 215 183 154 133 134 132 110 111 82 71 60 56 47 52 40 45

GFSSE_con_3kmhel_117.txt.gz
Helicity
97 126 71 47 20 25 46 53 64 87 109 111 105 90 87 102 93 86 88 83 68 64 58 60 65 57 61 80 93 118 129 141 146 143 130 112 102 85 50 40 62 78 83
146 70 27 19 21 68 72 69 65 65 91 109 111 89 92 114 105 84 89 68 59 58 70 53 59 61 70 77 100 117 119 119 119 116 107 125 123 89 74 104 121 79 91
98 57 40 63 63 60 58 53 56 61 97 109 110 96 97 97 91 96 69 71 61 54 69 65 51 56 71 93 103 98 91 90 69 29 13 73 95 100 118 133 96 96 84
73 65 60 50 50 53 55 52 53 69 98 108 101 105 94 98 106 91 72 83 52 60 73 68 50 61 85 108 102 89 76 51 6 11 90 68 74 101 112 99 86 88 97
63 52 103 71 64 70 72 60 53 65 84 99 87 83 76 86 77 101 103 13 21 71 66 74 76 72 104 116 107 90 52 -4 0 72 74 60 68 81 83 72 57 49 78
64 67 110 88 66 74 95 81 63 74 75 90 89 64 78 104 179 139 53 35 -12 47 59 58 80 105 123 112 100 77 18 -19 32 77 49 76 86 86 90 125 134 130 113
82 133 95 103 83 81 97 90 68 62 76 83 61 90 140 260 129 -9 -20 38 15 9 62 98 113 117 126 109 84 40 -24 -10 63 86 81 76 86 82 89 119 145 136 122
104 138 123 110 97 88 105 96 71 66 76 71 73 118 319 251 61 128 118 138 79 -25 69 125 135 155 116 101 76 26 -1 63 65 103 76 83 90 85 98 111 121 134 131
116 127 136 130 103 87 88 104 75 74 71 72 48 178 255 225 58 81 114 129 54 22 117 117 166 184 167 110 73 40 73 90 78 120 94 73 74 76 83 98 114 123 122
94 114 142 148 125 96 79 101 78 75 82 85 93 167 207 153 89 38 33 61 78 92 108 143 180 183 166 137 83 57 89 95 93 60 82 90 82 60 66 91 104 120 117
84 94 128 140 126 108 75 90 87 79 88 110 122 167 189 90 83 63 33 118 127 113 116 159 209 214 155 129 103 62 62 80 57 80 83 74 66 52 64 88 99 111 96
82 88 107 113 122 121 89 92 84 81 93 92 139 147 104 83 83 102 90 112 142 146 108 167 176 205 76 67 98 68 68 65 53 67 91 58 51 40 54 71 73 86 76
71 79 77 103 116 129 128 118 96 68 95 97 113 168 108 96 83 113 136 96 122 120 113 125 167 45 34 74 71 61 58 42 33 60 44 65 40 26 62 53 66 59 58
96 94 82 98 113 150 121 124 104 109 116 125 136 178 161 137 100 101 134 85 122 138 145 118 62 52 59 62 49 55 72 51 59 114 30 43 64 52 50 44 47 49 42
69 121 112 80 124 140 115 118 115 132 152 158 173 220 200 164 116 124 128 109 124 156 144 104 102 61 62 64 49 58 72 88 115 82 18 66 68 57 34 37 34 29 37
78 129 130 104 113 161 146 140 186 134 155 207 215 215 183 157 120 77 71 111 122 152 164 211 122 98 106 78 77 79 74 100 79 82 45 68 59 60 58 32 28 27 29
89 112 129 136 135 139 166 164 178 152 162 186 206 201 189 140 100 74 65 111 148 187 205 207 111 121 95 87 94 93 82 102 75 77 44 54 64 58 48 41 32 34 26
63 99 105 128 164 146 166 131 149 166 188 189 194 192 157 123 83 66 72 103 154 156 220 198 135 123 146 104 72 140 94 89 80 75 63 49 43 49 54 49 39 34 34
57 79 112 124 153 156 170 129 141 185 167 213 200 199 163 114 72 69 84 88 129 172 171 189 148 149 161 72 149 102 139 97 82 66 81 37 52 39 40 60 38 32 41
52 108 108 138 136 176 172 128 151 221 199 226 185 206 164 124 87 50 84 104 147 200 181 205 191 139 85 96 113 98 128 176 80 84 98 55 40 28 43 68 45 30 29
74 99 79 95 115 189 146 188 286 252 247 207 163 166 174 185 102 72 61 111 144 220 187 182 176 93 72 71 207 119 188 154 116 81 82 68 67 80 71 33 27 31 47
107 80 70 78 82 144 191 242 210 187 167 145 144 166 164 194 159 99 92 141 196 267 219 225 211 188 137 101 205 191 191 178 155 70 79 74 87 70 73 56 31 38 41
83 87 68 88 84 161 251 178 136 164 248 217 195 176 186 187 200 145 139 127 171 208 328 219 186 222 183 83 173 251 228 155 133 90 86 83 103 74 71 49 41 50 39
84 78 74 91 74 203 192 111 139 165 203 153 146 133 179 192 192 148 155 156 184 243 251 235 202 214 131 117 140 160 107 98 136 135 106 106 104 68 74 58 48 30 33
70 89 78 99 91 174 115 105 137 128 128 135 117 154 154 171 138 130 161 182 177 299 342 355 224 173 167 191 196 124 108 144 58 95 117 101 83 67 71 60 60 45 43
200 130 110 119 123 168 103 93 104 125 145 165 131 141 162 150 118 150 179 207 203 214 317 379 346 203 171 180 199 147 173 182 141 116 82 102 99 88 74 75 69 65 49